W7TJC Weather Reports


time (UTC)temp
F
wind
direction
speed
knots
gust
knots
rain 1hr
in
rain 24hr
in
rain mn
in
humidity
%
barometer
mb
20260504001515 79 93 0.0 0.0 0.00 0.00 0.00 35 1011.1
20260504001011 79 48 2.6 2.6 0.00 0.00 0.00 35 1011.4
20260504000509 79 27 0.9 1.7 0.00 0.00 0.00 35 1011.3
20260504000006 79 17 1.7 1.7 0.00 0.00 0.00 35 1011.4
20260503235504 79 294 0.9 0.9 0.00 0.00 0.00 34 1011.5
20260503235000 79 103 0.0 0.9 0.00 0.00 0.00 37 1011.5
20260503234458 79 70 0.0 0.9 0.00 0.00 0.00 36 1011.5
20260503233956 79 34 0.9 0.9 0.00 0.00 0.00 36 1011.6
20260503233452 79 16 0.9 0.9 0.00 0.00 0.00 36 1011.7
20260503232948 79 72 0.0 0.9 0.00 0.00 0.00 35 1011.5
20260503232446 79 64 1.7 1.7 0.00 0.00 0.00 35 1011.6
20260503231943 79 316 0.9 0.9 0.00 0.00 0.00 36 1011.7
20260503231441 79 17 0.9 0.9 0.00 0.00 0.00 35 1011.9
20260503230937 79 273 0.9 1.7 0.00 0.00 0.00 36 1011.9
20260503230434 79 52 0.0 0.0 0.00 0.00 0.00 36 1012.0
20260503225931 79 324 1.7 1.7 0.00 0.00 0.00 36 1012.2
20260503225428 79 342 0.9 0.9 0.00 0.00 0.00 37 1012.1
20260503224924 79 323 1.7 1.7 0.00 0.00 0.00 37 1012.3
20260503224421 79 65 0.0 0.0 0.00 0.00 0.00 35 1012.4
20260503223919 79 306 0.9 1.7 0.00 0.00 0.00 36 1012.3
20260503223416 79 195 0.9 0.9 0.00 0.00 0.00 37 1012.2
20260503222916 79 184 0.9 0.9 0.00 0.00 0.00 36 1012.2
20260503222415 80 51 0.9 1.7 0.00 0.00 0.00 37 1012.5
20260503221913 79 82 0.9 0.9 0.00 0.00 0.00 38 1012.7
20260503221411 80 348 2.6 2.6 0.00 0.00 0.00 36 1012.4
20260503220907 80 24 0.9 1.7 0.00 0.00 0.00 37 1012.4
20260503220404 80 35 0.9 0.9 0.00 0.00 0.00 38 1012.7
20260503215901 79 82 0.9 0.9 0.00 0.00 0.00 39 1012.8
20260503215358 80 85 0.0 0.0 0.00 0.00 0.00 38 1012.7
20260503214855 80 326 0.9 2.6 0.00 0.00 0.00 38 1012.9
20260503214353 80 329 0.9 0.9 0.00 0.00 0.00 38 1012.8
20260503213850 80 127 0.0 0.9 0.00 0.00 0.00 37 1012.8
20260503213348 80 204 0.0 0.0 0.00 0.00 0.00 39 1013.0
20260503212844 80 186 0.9 0.9 0.00 0.00 0.00 37 1012.9
20260503212342 80 286 0.9 1.7 0.00 0.00 0.00 35 1013.2
20260503211839 80 24 0.9 1.7 0.00 0.00 0.00 36 1013.1
20260503211336 81 83 1.7 1.7 0.00 0.00 0.00 35 1013.1
20260503210831 81 42 1.7 1.7 0.00 0.00 0.00 37 1013.2
20260503210329 82 311 1.7 1.7 0.00 0.00 0.00 37 1013.2
20260503205824 82 47 0.0 0.0 0.00 0.00 0.00 37 1013.2
20260503205320 81 54 0.0 0.0 0.00 0.00 0.00 38 1013.1
20260503204817 80 59 1.7 2.6 0.00 0.00 0.00 39 1013.4
20260503204315 80 76 0.9 0.9 0.00 0.00 0.00 39 1013.4
20260503203812 79 38 0.9 0.9 0.00 0.00 0.00 41 1013.5
20260503203309 78 7 0.9 0.9 0.00 0.00 0.00 43 1013.5
20260503202806 78 37 0.9 0.9 0.00 0.00 0.00 41 1013.3
20260503202304 79 84 0.0 0.0 0.00 0.00 0.00 43 1013.7
20260503201801 78 27 1.7 1.7 0.00 0.00 0.00 40 1013.6
20260503201258 78 76 0.0 0.9 0.00 0.00 0.00 44 1013.7
20260503200756 78 326 1.7 2.6 0.00 0.00 0.00 43 1013.9
20260503200251 79 48 0.9 0.9 0.00 0.00 0.00 41 1013.8
20260503195749 78 17 0.9 0.9 0.00 0.00 0.00 41 1013.9
20260503195245 78 72 0.0 0.9 0.00 0.00 0.00 41 1013.9
20260503194743 78 61 0.0 0.9 0.00 0.00 0.00 44 1014.1
20260503194239 77 41 0.9 0.9 0.00 0.00 0.00 45 1014.0
20260503193735 77 336 0.0 0.9 0.00 0.00 0.00 43 1014.2
20260503193231 77 63 0.9 0.9 0.00 0.00 0.00 44 1014.1
20260503192727 77 50 1.7 1.7 0.00 0.00 0.00 43 1014.5
20260503192222 77 83 1.7 1.7 0.00 0.00 0.00 43 1014.5
20260503191719 76 52 0.9 0.9 0.00 0.00 0.00 46 1014.4
20260503191216 75 19 1.7 1.7 0.00 0.00 0.00 45 1014.4
20260503190713 74 337 2.6 2.6 0.00 0.00 0.00 45 1014.6
20260503190210 74 73 0.0 0.0 0.00 0.00 0.00 45 1014.7
20260503185708 74 349 1.7 1.7 0.00 0.00 0.00 46 1014.5
20260503185202 73 347 0.9 0.9 0.00 0.00 0.00 47 1014.7
20260503184657 73 41 0.9 0.9 0.00 0.00 0.00 47 1014.7
20260503184154 73 14 1.7 1.7 0.00 0.00 0.00 47 1014.8
20260503183650 72 81 0.9 0.9 0.00 0.00 0.00 48 1014.8
20260503183148 73 345 0.9 1.7 0.00 0.00 0.00 48 1015.0
20260503182646 73 79 0.0 0.9 0.00 0.00 0.00 48 1014.7
20260503182144 73 70 0.9 0.9 0.00 0.00 0.00 50 1014.9
20260503181640 72 51 0.0 0.0 0.00 0.00 0.00 50 1014.9
20260503181137 72 322 0.9 1.7 0.00 0.00 0.00 49 1014.9
20260503180634 72 347 0.9 0.9 0.00 0.00 0.00 52 1015.1
20260503180132 72 14 1.7 1.7 0.00 0.00 0.00 52 1015.1
20260503175629 71 85 0.0 0.0 0.00 0.00 0.00 53 1014.9
20260503175126 71 57 0.0 0.9 0.00 0.00 0.00 52 1015.1
20260503174622 70 329 0.9 0.9 0.00 0.00 0.00 55 1015.1
20260503174120 70 295 0.9 0.9 0.00 0.00 0.00 55 1015.3
20260503173614 69 82 0.0 0.0 0.00 0.00 0.00 56 1015.2
20260503173111 69 74 0.0 0.9 0.00 0.00 0.00 56 1015.4
20260503172608 69 261 0.9 0.9 0.00 0.00 0.00 56 1015.3
20260503172106 68 315 2.6 4.3 0.00 0.00 0.00 56 1015.2
20260503171602 68 342 0.9 0.9 0.00 0.00 0.00 56 1015.0
20260503171100 68 272 0.9 0.9 0.00 0.00 0.00 55 1015.1
20260503170555 68 251 1.7 1.7 0.00 0.00 0.00 56 1015.2
20260503150948 61 329 0.9 0.9 0.00 0.00 0.00 68 1015.5
20260503150445 61 352 0.9 1.7 0.00 0.00 0.00 68 1015.5
20260503131338 56 130 0.0 0.0 0.00 0.00 0.00 77 1015.0
20260503130835 56 56 0.0 0.0 0.00 0.00 0.00 74 1015.0
20260503130333 56 72 0.0 0.0 0.00 0.00 0.00 74 1014.8
20260503110726 53 115 0.0 0.0 0.00 0.00 0.00 79 1015.3
20260503110224 53 118 0.0 0.0 0.00 0.00 0.00 79 1015.4
20260503100149 54 130 0.0 0.0 0.00 0.00 0.00 77 1015.3
20260503090109 54 130 0.0 0.0 0.00 0.00 0.00 81 1015.8
20260503081544 55 143 0.0 0.0 0.00 0.00 0.00 76 1015.8
20260503081042 55 130 0.0 0.0 0.00 0.00 0.00 76 1015.9
20260503080538 56 143 0.0 0.0 0.00 0.00 0.00 77 1015.7
20260503072512 57 152 0.0 0.0 0.00 0.00 0.00 75 1015.9
20260503072009 57 38 0.0 0.0 0.00 0.00 0.00 73 1015.7
20260503071506 57 38 0.0 0.0 0.00 0.00 0.00 74 1015.4
20260503071002 57 38 0.0 0.0 0.00 0.00 0.00 75 1015.8
20260503070459 57 38 0.0 0.0 0.00 0.00 0.00 73 1015.7
20260503054917 62 43 0.0 0.0 0.00 0.00 0.00 60 1015.2
20260503054413 62 331 0.0 0.0 0.00 0.00 0.00 61 1015.1
20260503053911 62 32 0.0 0.9 0.00 0.00 0.00 61 1015.3
20260503053409 62 37 0.9 0.9 0.00 0.00 0.00 61 1015.3
20260503052905 62 57 0.0 0.9 0.00 0.00 0.00 61 1015.1
20260503052402 62 13 0.0 0.0 0.00 0.00 0.00 61 1015.2
20260503051858 62 45 0.9 0.9 0.00 0.00 0.00 61 1015.2
20260503051354 62 45 0.0 0.0 0.00 0.00 0.00 61 1015.2
20260503050852 62 13 0.0 0.0 0.00 0.00 0.00 61 1015.3
20260503050348 62 72 0.0 0.0 0.00 0.00 0.00 62 1015.2
20260503045845 62 71 0.0 0.0 0.00 0.00 0.00 62 1015.0
20260503045343 62 29 0.9 0.9 0.00 0.00 0.00 61 1015.4
20260503044839 62 21 0.0 0.9 0.00 0.00 0.00 61 1015.1
20260503044336 62 38 0.0 0.9 0.00 0.00 0.00 61 1015.1
20260503043833 62 1 0.9 0.9 0.00 0.00 0.00 61 1015.0
20260503043330 62 50 0.0 0.9 0.00 0.00 0.00 61 1015.0
20260503042826 63 46 0.9 0.9 0.00 0.00 0.00 61 1015.1
20260503042324 63 43 0.9 0.9 0.00 0.00 0.00 60 1014.9
20260503041819 63 40 0.0 0.0 0.00 0.00 0.00 60 1014.9
20260503041317 63 50 0.0 0.9 0.00 0.00 0.00 59 1014.8
20260503040815 64 72 0.0 0.0 0.00 0.00 0.00 59 1014.7
20260503040312 64 57 0.0 0.0 0.00 0.00 0.00 58 1014.7
20260503035809 64 354 0.9 0.9 0.00 0.00 0.00 56 1014.7
20260503035306 65 17 0.0 0.0 0.00 0.00 0.00 55 1014.7
20260503034803 65 39 0.0 0.0 0.00 0.00 0.00 55 1014.6
20260503034300 66 63 0.0 0.0 0.00 0.00 0.00 54 1014.6
20260503033757 66 63 0.0 0.0 0.00 0.00 0.00 53 1014.2
20260503033255 66 64 0.0 0.0 0.00 0.00 0.00 52 1014.3
20260503032753 67 51 0.0 0.0 0.00 0.00 0.00 50 1014.2
20260503032252 68 66 0.9 0.9 0.00 0.00 0.00 49 1014.4
20260503031748 69 56 0.9 0.9 0.00 0.00 0.00 46 1014.1
20260503031246 69 5 0.0 0.9 0.00 0.00 0.00 46 1014.1
20260503030742 69 355 0.9 0.9 0.00 0.00 0.00 45 1014.1
20260503030239 69 70 0.9 0.9 0.00 0.00 0.00 46 1013.9
20260503025735 69 44 0.9 0.9 0.00 0.00 0.00 45 1013.9
20260503025233 69 358 0.9 0.9 0.00 0.00 0.00 45 1014.2
20260503024730 70 354 0.9 0.9 0.00 0.00 0.00 45 1013.9
20260503024227 70 45 0.9 0.9 0.00 0.00 0.00 46 1014.0
20260503023724 70 52 0.0 0.9 0.00 0.00 0.00 46 1013.8
20260503023221 70 73 2.6 4.3 0.00 0.00 0.00 46 1014.1
20260503022717 70 71 1.7 1.7 0.00 0.00 0.00 46 1013.9
20260503022217 70 65 0.0 0.0 0.00 0.00 0.00 47 1013.9
20260503021714 71 342 1.7 1.7 0.00 0.00 0.00 46 1014.0
20260503021210 71 61 0.9 0.9 0.00 0.00 0.00 47 1013.8
20260503020708 71 342 0.9 1.7 0.00 0.00 0.00 47 1014.1
20260503020205 71 34 0.9 1.7 0.00 0.00 0.00 47 1014.0
20260503015702 71 36 0.9 0.9 0.00 0.00 0.00 49 1014.1
20260503015159 71 24 0.9 1.7 0.00 0.00 0.00 49 1014.0
20260503014654 71 63 1.7 1.7 0.00 0.00 0.00 51 1014.1
20260503014153 71 40 0.9 0.9 0.00 0.00 0.00 51 1014.0
20260503013649 71 49 0.0 0.9 0.00 0.00 0.00 52 1014.1
20260503013147 70 63 0.0 0.9 0.00 0.00 0.00 53 1014.3
20260503012644 70 358 0.9 0.9 0.00 0.00 0.00 52 1014.0
20260503012141 71 55 0.9 0.9 0.00 0.00 0.00 53 1014.2
20260503011637 71 43 0.9 0.9 0.00 0.00 0.00 53 1014.3
20260503011135 71 349 0.9 1.7 0.00 0.00 0.00 52 1014.1
20260503010631 72 33 0.9 0.9 0.00 0.00 0.00 52 1014.1
20260503010128 72 76 0.9 1.7 0.00 0.00 0.00 50 1014.2
20260503005625 72 69 0.9 0.9 0.00 0.00 0.00 52 1014.2
20260503005122 72 13 1.7 2.6 0.00 0.00 0.00 50 1014.0
20260503004618 73 52 0.9 0.9 0.00 0.00 0.00 49 1014.1
20260503004117 73 67 0.0 0.0 0.00 0.00 0.00 49 1014.1
20260503003614 73 89 0.9 1.7 0.00 0.00 0.00 47 1014.2
20260503003111 73 321 0.9 1.7 0.00 0.00 0.00 46 1014.1
20260503002608 73 80 0.9 0.9 0.00 0.00 0.00 46 1014.3
20260503002104 73 50 0.9 1.7 0.00 0.00 0.00 46 1014.3